Preview of NWS' New Version of Forecast
This preview is not operational and should not be used for support decisions.

Regional Weather Roundup (RWR)

Issued by National Weather Service (NWS)

                            
000
ASUS43 KTOP 211808
RWRKS 

WEATHER ROUNDUP FOR KANSAS
NATIONAL WEATHER SERVICE GOODLAND KS
100 PM CDT SUN APR 21 2019

NOTE:  "FAIR" INDICATES FEW OR NO CLOUDS BELOW 12,000 FEET WITH NO
SIGNIFICANT WEATHER AND/OR OBSTRUCTIONS TO VISIBILITY.

KSZ001>006-013>018-027>032-041>047-211900-
NORTHWEST KANSAS
  
CITY           SKY/WX    TMP DP  RH WIND       PRES   REMARKS
GOODLAND       SUNNY     74  47  38 N26G39    29.69R                  
6HR MIN TEMP:  50; 6HR MAX TEMP:  75;                                

HAYS           MOSUNNY   82  49  31 S23G30    29.61F                  
HILL CITY      SUNNY     84  43  23 S15G25    29.60F                  
6HR MIN TEMP:  55; 6HR MAX TEMP:  84;                                

RUSSELL        MOSUNNY   80  50  34 S21G33    29.63S                  
6HR MIN TEMP:  59; 6HR MAX TEMP:  80;                                

$$

KSZ061>065-074>080-084>089-211900-
SOUTHWEST KANSAS
  
CITY           SKY/WX    TMP DP  RH WIND       PRES   REMARKS
DODGE CITY     SUNNY     86  37  17 SW18G32   29.68S                  
6HR MIN TEMP:  53; 6HR MAX TEMP:  86;                                

ELKHART        SUNNY     86  37  18 SW13      29.76F                  
GARDEN CITY    SUNNY     83  35  18 W16G28    29.69R                  
6HR MIN TEMP:  50; 6HR MAX TEMP:  83;                                

GREAT BEND     MOSUNNY   79  53  40 S23G29    29.66F                  
LIBERAL        SUNNY     85  33  15 SW17G30   29.73F                  
PRATT          SUNNY     79  50  35 S21G26    29.71S                  
6HR MIN TEMP:  58; 6HR MAX TEMP:  79;                                

$$

KSZ066>073-081>083-090>101-211900-
SOUTHEAST KANSAS
  
CITY           SKY/WX    TMP DP  RH WIND       PRES   REMARKS
CHANUTE        SUNNY     82  47  29 S35G47    29.83F                  
6HR MIN TEMP:  58; 6HR MAX TEMP:  82;                                

COFFEYVILLE    SUNNY     81  48  31 S30G43    29.85F                  
6HR MIN TEMP:  59; 6HR MAX TEMP:  81;                                

HUTCHINSON     SUNNY     76  55  48 S26G38    29.71S                  
6HR MIN TEMP:  57; 6HR MAX TEMP:  77;                                

MEDICINE LODGE   N/A     79  54  41 S14G28    29.71S                  
NEWTON         SUNNY     77  55  46 S33G41    29.73F                  
PARSONS        SUNNY     81  47  30 S20G41    29.85F                  
6HR MIN TEMP:  58; 6HR MAX TEMP:  81;                                

WICHITA INTL   MOSUNNY   77  55  46 S25G40    29.74F                  
6HR MIN TEMP:  59; 6HR MAX TEMP:  77;                                

WICHITA JABRA  SUNNY     78  56  46 S28G39    29.75F                  
6HR MIN TEMP:  59; 6HR MAX TEMP:  78;                                

WICHITA MCCONL SUNNY     77  57  49 SE29G37   29.75F                  
WINFIELD       SUNNY     78  57  48 S23G38    29.78F                  
6HR MIN TEMP:  60; 6HR MAX TEMP:  78;                                

$$

KSZ007>012-019>026-033>040-048>060-102>105-211900-
NORTHEAST KANSAS
  
CITY           SKY/WX    TMP DP  RH WIND       PRES   REMARKS
CONCORDIA      SUNNY     79  53  40 S22G33    29.66F                  
6HR MIN TEMP:  62; 6HR MAX TEMP:  79;                                

EMPORIA        MOSUNNY   81  53  37 S30G43    29.75F                  
6HR MIN TEMP:  58; 6HR MAX TEMP:  81;                                

LAWRENCE       SUNNY     83  48  29 S31G48    29.78F                  
6HR MIN TEMP:  57; 6HR MAX TEMP:  83;                                

MANHATTAN      MOSUNNY   82  52  35 S17G37    29.70F                  
6HR MIN TEMP:  64; 6HR MAX TEMP:  82;                                

MARYSVILLE     SUNNY     79  54  41 S22G29    29.69F                  
OLATHE IND     SUNNY     81  51  35 S24G39    29.82F                  
6HR MIN TEMP:  55; 6HR MAX TEMP:  81;                                

OLATHE EXE     SUNNY     79  50  36 S26G38    29.82S                  
6HR MIN TEMP:  57; 6HR MAX TEMP:  79;                                

SALINA         SUNNY     78  55  44 S24G40    29.68F                  
6HR MIN TEMP:  62; 6HR MAX TEMP:  78;                                

TOPEKA BILLARD SUNNY     81  50  33 S28G41    29.76S                  
6HR MIN TEMP:  62; 6HR MAX TEMP:  82;                                

TOPEKA FORBES  SUNNY     80  50  34 S29G52    29.75F                  
6HR MIN TEMP:  61; 6HR MAX TEMP:  81;                                

$$